TimeCDT,TemperatureF,Dew PointF,Humidity,Sea Level PressureIn,VisibilityMPH,Wind Direction,Wind SpeedMPH,Gust SpeedMPH,PrecipitationIn,Events,Conditions,WindDirDegrees,DateUTC
12:15 AM,51.8,37.4,58,30.00,10.0,NNE,15.0,-,N/A,,Clear,20,2013-10-21 05:15:00
12:35 AM,51.8,37.4,58,30.01,10.0,NNE,13.8,21.9,N/A,,Clear,20,2013-10-21 05:35:00
12:55 AM,51.8,37.4,58,30.01,10.0,NNE,11.5,19.6,N/A,,Clear,20,2013-10-21 05:55:00
1:15 AM,51.8,35.6,54,30.01,10.0,NNE,10.4,-,N/A,,Clear,20,2013-10-21 06:15:00
1:35 AM,50.0,37.4,62,30.03,10.0,North,6.9,-,N/A,,Clear,360,2013-10-21 06:35:00
1:55 AM,50.0,37.4,62,30.03,10.0,North,10.4,-,N/A,,Clear,360,2013-10-21 06:55:00
2:15 AM,50.0,37.4,62,30.03,10.0,North,10.4,-,N/A,,Clear,10,2013-10-21 07:15:00
2:35 AM,50.0,37.4,62,30.04,10.0,North,10.4,-,N/A,,Clear,10,2013-10-21 07:35:00
2:55 AM,50.0,37.4,62,30.05,10.0,North,10.4,16.1,N/A,,Clear,10,2013-10-21 07:55:00
3:15 AM,48.2,37.4,66,30.06,10.0,NNE,10.4,-,N/A,,Clear,20,2013-10-21 08:15:00
3:35 AM,50.0,35.6,58,30.07,10.0,NNE,8.1,17.3,N/A,,Clear,20,2013-10-21 08:35:00
3:55 AM,50.0,35.6,58,30.07,10.0,NNE,10.4,-,N/A,,Clear,20,2013-10-21 08:55:00
4:15 AM,50.0,35.6,58,30.07,10.0,NNE,9.2,-,N/A,,Clear,20,2013-10-21 09:15:00
4:35 AM,48.2,35.6,62,30.07,10.0,NNE,6.9,-,N/A,,Clear,20,2013-10-21 09:35:00
4:55 AM,46.4,35.6,66,30.08,10.0,NNE,6.9,-,N/A,,Clear,30,2013-10-21 09:55:00
5:15 AM,46.4,35.6,66,30.09,10.0,NNE,5.8,-,N/A,,Clear,30,2013-10-21 10:15:00
5:35 AM,48.2,35.6,62,30.09,10.0,NNE,8.1,-,N/A,,Clear,30,2013-10-21 10:35:00
5:55 AM,46.4,35.6,66,30.09,10.0,NNE,10.4,-,N/A,,Clear,20,2013-10-21 10:55:00
6:15 AM,46.4,37.4,71,30.10,10.0,North,9.2,-,N/A,,Clear,10,2013-10-21 11:15:00
6:35 AM,44.6,37.4,76,30.10,10.0,North,4.6,-,N/A,,Clear,10,2013-10-21 11:35:00
6:55 AM,46.4,37.4,71,30.11,10.0,North,6.9,-,N/A,,Clear,10,2013-10-21 11:55:00
7:15 AM,44.6,37.4,76,30.12,10.0,North,8.1,-,N/A,,Clear,360,2013-10-21 12:15:00
7:35 AM,42.8,35.6,76,30.12,10.0,North,6.9,-,N/A,,Clear,350,2013-10-21 12:35:00
7:55 AM,42.8,35.6,76,30.14,10.0,NNW,6.9,-,N/A,,Clear,340,2013-10-21 12:55:00
8:15 AM,42.8,37.4,81,30.14,10.0,NNW,5.8,-,N/A,,Clear,340,2013-10-21 13:15:00
8:35 AM,44.6,37.4,76,30.15,10.0,NNW,5.8,-,N/A,,Clear,340,2013-10-21 13:35:00
8:55 AM,44.6,39.2,81,30.16,10.0,North,6.9,-,N/A,,Clear,360,2013-10-21 13:55:00
9:15 AM,46.4,39.2,76,30.17,10.0,North,9.2,-,N/A,,Clear,10,2013-10-21 14:15:00
9:35 AM,46.4,39.2,76,30.17,10.0,NNE,8.1,-,N/A,,Scattered Clouds,20,2013-10-21 14:35:00
9:55 AM,48.2,37.4,66,30.18,10.0,North,12.7,-,N/A,,Scattered Clouds,360,2013-10-21 14:55:00
10:15 AM,50.0,37.4,62,30.19,10.0,NNE,10.4,-,N/A,,Scattered Clouds,30,2013-10-21 15:15:00
10:35 AM,50.0,37.4,62,30.19,10.0,NNE,11.5,-,N/A,,Mostly Cloudy,20,2013-10-21 15:35:00
10:55 AM,50.0,37.4,62,30.20,10.0,North,9.2,16.1,N/A,,Scattered Clouds,10,2013-10-21 15:55:00
11:15 AM,50.0,37.4,62,30.20,10.0,NNE,12.7,-,N/A,,Scattered Clouds,20,2013-10-21 16:15:00
11:35 AM,51.8,35.6,54,30.20,10.0,NNE,9.2,-,N/A,,Mostly Cloudy,30,2013-10-21 16:35:00
11:55 AM,51.8,35.6,54,30.20,10.0,NNE,10.4,-,N/A,,Scattered Clouds,30,2013-10-21 16:55:00
12:15 PM,53.6,35.6,51,30.20,10.0,NE,6.9,-,N/A,,Clear,40,2013-10-21 17:15:00
12:55 PM,55.4,35.6,47,30.20,10.0,NE,5.8,-,N/A,,Clear,40,2013-10-21 17:55:00
1:15 PM,55.4,35.6,47,30.19,10.0,NNE,4.6,-,N/A,,Clear,20,2013-10-21 18:15:00
1:35 PM,59.0,33.8,39,30.18,10.0,North,8.1,-,N/A,,Clear,360,2013-10-21 18:35:00
1:55 PM,59.0,33.8,39,30.17,10.0,North,4.6,-,N/A,,Clear,360,2013-10-21 18:55:00
2:15 PM,60.8,33.8,36,30.17,10.0,North,8.1,-,N/A,,Clear,360,2013-10-21 19:15:00
2:35 PM,59.0,33.8,39,30.15,10.0,NNE,5.8,-,N/A,,Clear,20,2013-10-21 19:35:00
2:55 PM,60.8,32.0,34,30.14,10.0,Calm,Calm,-,N/A,,Clear,0,2013-10-21 19:55:00
3:15 PM,60.8,33.8,36,30.14,10.0,North,4.6,-,N/A,,Clear,360,2013-10-21 20:15:00
3:35 PM,62.6,32.0,32,30.13,10.0,North,6.9,-,N/A,,Clear,350,2013-10-21 20:35:00
3:55 PM,60.8,32.0,34,30.13,10.0,North,8.1,-,N/A,,Clear,360,2013-10-21 20:55:00
4:15 PM,60.8,32.0,34,30.13,10.0,NNE,5.8,-,N/A,,Clear,20,2013-10-21 21:15:00
4:35 PM,62.6,32.0,32,30.12,10.0,North,8.1,-,N/A,,Clear,360,2013-10-21 21:35:00
4:55 PM,60.8,32.0,34,30.12,10.0,Calm,Calm,-,N/A,,Clear,0,2013-10-21 21:55:00
5:15 PM,62.6,32.0,32,30.12,10.0,North,6.9,-,N/A,,Clear,10,2013-10-21 22:15:00
5:35 PM,62.6,32.0,32,30.12,10.0,NW,5.8,-,N/A,,Clear,310,2013-10-21 22:35:00
5:55 PM,60.8,32.0,34,30.12,10.0,Calm,Calm,-,N/A,,Clear,0,2013-10-21 22:55:00
6:15 PM,60.8,32.0,34,30.12,10.0,NNE,4.6,-,N/A,,Clear,20,2013-10-21 23:15:00
6:35 PM,60.8,32.0,34,30.13,10.0,NNE,3.5,-,N/A,,Clear,30,2013-10-21 23:35:00
6:55 PM,59.0,32.0,36,30.13,10.0,Calm,Calm,-,N/A,,Clear,0,2013-10-21 23:55:00
7:15 PM,57.2,32.0,38,30.13,10.0,Calm,Calm,-,N/A,,Clear,0,2013-10-22 00:15:00
7:35 PM,55.4,32.0,41,30.13,10.0,Calm,Calm,-,N/A,,Clear,0,2013-10-22 00:35:00
7:55 PM,51.8,32.0,47,30.13,10.0,SSE,4.6,-,N/A,,Clear,160,2013-10-22 00:55:00
8:15 PM,46.4,33.8,62,30.14,10.0,South,6.9,-,N/A,,Clear,180,2013-10-22 01:15:00
8:35 PM,46.4,33.8,62,30.14,10.0,South,6.9,-,N/A,,Clear,180,2013-10-22 01:35:00
8:55 PM,44.6,33.8,66,30.14,10.0,South,8.1,-,N/A,,Clear,190,2013-10-22 01:55:00
9:15 PM,44.6,33.8,66,30.14,10.0,South,6.9,-,N/A,,Clear,190,2013-10-22 02:15:00
9:35 PM,44.6,32.0,61,30.14,10.0,South,9.2,-,N/A,,Clear,180,2013-10-22 02:35:00
9:55 PM,44.6,32.0,61,30.14,10.0,SSW,5.8,-,N/A,,Clear,200,2013-10-22 02:55:00
10:15 PM,44.6,32.0,61,30.15,10.0,SSW,3.5,-,N/A,,Clear,210,2013-10-22 03:15:00
10:35 PM,42.8,32.0,66,30.16,10.0,Calm,Calm,-,N/A,,Clear,0,2013-10-22 03:35:00
10:55 PM,41.0,32.0,70,30.17,10.0,West,4.6,-,N/A,,Clear,260,2013-10-22 03:55:00
11:15 PM,41.0,32.0,70,30.17,10.0,WSW,6.9,-,N/A,,Clear,250,2013-10-22 04:15:00
11:35 PM,42.8,32.0,66,30.17,10.0,WSW,8.1,-,N/A,,Clear,240,2013-10-22 04:35:00
11:55 PM,42.8,32.0,66,30.17,10.0,WSW,8.1,-,N/A,,Clear,240,2013-10-22 04:55:00